Weather Roundup
Issued by NWS Chicago, IL

Home | Current Version | Previous Version | Graphics & Text | Print | Product List | Glossary Off
Versions: 1 2 3 4 5 6 7 8 9 10 11 12 13 14 15 16 17 18 19 20 21 22 23 24 25 26 27 28 29 30 31 32 33 34 35 36 37 38 39 40 41 42 43 44 45 46 47 48 49 50

000
NZUS59 KLOT 221508
HRRLOT

CHICAGO AREA WEATHER ROUNDUP
NATIONAL WEATHER SERVICE CHICAGO/ROMEOVILLE IL
1000 AM CDT SUN APR 22 2018

NOTE: "FAIR" INDICATES FEW OR NO CLOUDS BELOW 12,000 FEET WITH NO
SIGNIFICANT WEATHER AND/OR OBSTRUCTIONS TO VISIBILITY.

* THESE STATIONS ARE NOT UNDER NWS QUALITY CONTROL. THEY ALSO MAY NOT
  REPORT WEATHER SUCH AS PRECIPITATION OR FOG.

ILZ005-006-012>014-019>023-221600-
NORTHEAST ILLINOIS

CITY           SKY/WX    TMP DP  RH WIND       PRES   REMARKS
OHARE          PTSUNNY   53  21  28 E9        30.36S
MIDWAY         PTSUNNY   53  24  32 E9        30.37S
AURORA           N/A     55  27  34 E12       30.35S
LANSING*         N/A     56  30  38 E10       30.36S
JOLIET*          N/A     56  29  36 E10       30.34F
WAUKEGAN       PTSUNNY   49  30  48 NE7       30.38S
DUPAGE AIRPORT   N/A     53  26  35 E10       30.35S
WHEELING         N/A     53  26  35 E6        30.40R
KANKAKEE*        N/A     56  22  26 E14       30.33F
MORRIS*          N/A     55  24  30 E16       30.32F
LEWIS AIRPORT*   N/A     55  29  36 SE7       30.34F
NORTHERLY ISL    N/A     47  31  54 NE5         N/A
$$

WIZ051-052-058>065-066-070>072-221600-
SOUTHEAST WISCONSIN

CITY           SKY/WX    TMP DP  RH WIND       PRES   REMARKS
MILWAUKEE      PTSUNNY   48  23  37 NE8       30.41S
KENOSHA*         N/A     51  26  37 NE9       30.39S
RACINE*          N/A     48  25  40 NE9       30.41S
BURLINGTON       N/A     54  25  32 NE7       30.38S
WAUKESHA       SUNNY     48  21  34 E9        30.41S
WEST BEND        N/A     52  19  28 SE8       30.40S
$$

INZ001>003-010>013-019-020-221600-
NORTHWEST INDIANA

CITY           SKY/WX    TMP DP  RH WIND       PRES   REMARKS
GARY*          CLOUDY    54  32  43 NE6       30.37S
MICHIGAN CITY* NOT AVBL
RENSSELAER*    NOT AVBL
VALPARAISO       N/A     58  22  24 E17       30.35F
$$

LMZ740>746-221600-
SOUTHERN LAKE MICHIGAN

STATION/POSITION TIME  SKY/WX   TEMP WIND        PRES    VSBY
                                AIR  DIR/SP/G
                 (UTC)          (F)  (DEG/KT/KT) (MB)    (MI)
HARRISON CRIB    1440            43   30/  3/  3   N/A
BURNHAM HARBOR   1500            46  360/  4/  6   N/A
CALUMET HARBOR   1448                 50/  5/  6 1027.8R
BURNS HARBOR     1440            46   40/  9/ 10 1028.4F
MICHIGAN CITY    1440            53   70/ 16/ 17   N/A
$$

ABBREVIATIONS USED IN REMARKS
   TC - TEMPERATURE IN CELSIUS
  WCI - WIND CHILL INDEX
   HX - HEAT INDEX
  VSB - VISIBILITY
$$




USA.gov is the U.S. government's official web portal to all federal, state and local government web resources and services.